Regional Weather Roundup
Issued by NWS

Home | Current Version | Previous Version | Graphics & Text | Print | Product List | Glossary On
Versions: 1 2 3 4 5 6 7 8 9 10 11 12 13 14 15 16 17 18 19 20 21 22 23 24 25 26 27 28 29 30 31 32 33 34 35 36 37 38 39 40 41 42 43 44 45 46 47 48 49 50
000
ASUS43 KOAX 291202
RWRNE

WEATHER ROUNDUP FOR NEBRASKA
NATIONAL WEATHER SERVICE OMAHA NE
700 AM CDT WED JUL 29 2015

NOTES: SATELLITE DATA IS BEING USED TO AUGMENT CLOUD COVER ABOVE
       12000 FEET.
       "FAIR" INDICATES FEW OR NO CLOUDS BELOW 12,000 FEET WITH NO
       SIGNIFICANT WEATHER AND/OR OBSTRUCTIONS TO VISIBILITY.

  * THESE STATIONS DO NOT REPORT WEATHER SUCH AS RAIN...SNOW OR FOG.

NEZ001>004-019>022-054>056-291300-
NEBRASKA PANHANDLE

CITY           SKY/WX    TMP DP  RH WIND       PRES   REMARKS
SCOTTSBLUFF    CLEAR     49  45  86 MISG      30.30R
6HR MIN TEMP:  48; 6HR MAX TEMP:  58;

ALLIANCE       CLEAR     43  40  89 CALM      30.31R
6HR MIN TEMP:  41; 6HR MAX TEMP:  49;

CHADRON        CLEAR     45  40  82 SW7       30.28R
6HR MIN TEMP:  43; 6HR MAX TEMP:  51;

KIMBALL        CLEAR     49  42  75 E3        30.31R
SIDNEY         PTCLDY    54  42  64 E8        30.32R
6HR MIN TEMP:  46; 6HR MAX TEMP:  54;

$$

NEZ057>060-069>072-079>082-291300-
SOUTHWEST NEBRASKA

CITY           SKY/WX    TMP DP  RH WIND       PRES   REMARKS
NORTH PLATTE   MOCLDY    55  50  83 CALM      30.27R
6HR MIN TEMP:  52; 6HR MAX TEMP:  60;

IMPERIAL       CLOUDY    56  48  74 CALM      30.28R
6HR MIN TEMP:  53; 6HR MAX TEMP:  63;

MCCOOK         MOCLDY    55  51  86 W5        30.26R
6HR MIN TEMP:  54; 6HR MAX TEMP:  64;

$$

NEZ005>010-023>029-035>040-094-291300-
NORTH CENTRAL NEBRASKA

CITY           SKY/WX    TMP DP  RH WIND       PRES   REMARKS
VALENTINE      CLEAR     50  44  80 W7        30.22R
6HR MIN TEMP:  46; 6HR MAX TEMP:  55;

AINSWORTH      CLEAR     51  47  86 SW5       30.22R
BROKEN BOW     CLEAR     53  50  89 CALM      30.24R
6HR MIN TEMP:  52; 6HR MAX TEMP:  60;

O`NEILL        CLEAR     53  50  89 SW5       30.19R
ORD            CLEAR     52  51  97 CALM      30.20R
6HR MIN TEMP:  51; 6HR MAX TEMP:  57;

$$

NEZ041-046>049-061>064-073>077-083>087-291300-
SOUTH CENTRAL NEBRASKA

CITY           SKY/WX    TMP DP  RH WIND       PRES   REMARKS
GRAND ISLAND   CLEAR     57  53  86 CALM      30.20R
6HR MIN TEMP:  55; 6HR MAX TEMP:  62;

AURORA         CLEAR     56  56  99 NW3       30.19R
HASTINGS       PTCLDY    59  55  87 N5        30.21R
6HR MIN TEMP:  59; 6HR MAX TEMP:  65;

KEARNEY *      PTCLDY    55  52  88 NW6       30.23R
$$

NEZ011>018-030>034-042>045-291300-
NORTHEAST NEBRASKA

CITY           SKY/WX    TMP DP  RH WIND       PRES   REMARKS
NORFOLK        CLEAR     55  53  93 W3        30.17R
6HR MIN TEMP:  54; 6HR MAX TEMP:  61;

BLAIR          CLEAR     61  58  90 NW3       30.14R
COLUMBUS *     CLEAR     52  46  82 CALM      30.18R
FREMONT        CLEAR     60  57  92 W3        30.15R
TEKAMAH        CLEAR     60  58  92 CALM      30.14R
6HR MIN TEMP:  58; 6HR MAX TEMP:  65;

$$

NEZ050>053-065>068-078-088>093-291300-
SOUTHEAST NEBRASKA

CITY           SKY/WX    TMP DP  RH WIND       PRES   REMARKS
LINCOLN        PTCLDY    60  58  92 N3        30.16R
6HR MIN TEMP:  59; 6HR MAX TEMP:  69;

OMAHA EPPLEY   MOCLDY    63  62  97 N5        30.13R
6HR MIN TEMP:  62; 6HR MAX TEMP:  71;

FALLS CITY     CLOUDY    73  72  96 CALM      30.11R
6HR MIN TEMP:  71; 6HR MAX TEMP:  73; 6HR PCP:  0.17;

$$

NEZ044-045-051>053-067-291300-
OMAHA AREA

CITY           SKY/WX    TMP DP  RH WIND       PRES   REMARKS
OMAHA EPPLEY   MOCLDY    63  62  97 N5        30.13R
6HR MIN TEMP:  62; 6HR MAX TEMP:  71;

BLAIR          CLEAR     61  58  90 NW3       30.14R
FREMONT        CLEAR     60  57  92 W3        30.15R
OFFUTT AFB     CLEAR     62  60  94 NW6       30.12R
$$



USA.gov is the U.S. government's official web portal to all federal, state and local government web resources and services.